Regional Weather Roundup
Issued by NWS

Home | Current Version | Previous Version | Text Only | Print | Product List | Glossary Off
Versions: 1 2 3 4 5 6 7 8 9 10 11 12 13 14 15 16 17 18 19 20 21 22 23 24 25 26 27 28 29 30 31 32 33 34 35 36 37 38 39 40 41 42 43 44 45 46 47 48 49 50

000
ASUS45 KTFX 250519
RWRMT
MONTANA HOURLY WEATHER ROUNDUP
NATIONAL WEATHER SERVICE GREAT FALLS MT
1019 PM MST WED DEC 24 2014

NOTE: "FAIR" INDICATES FEW OR NO CLOUDS BELOW 12000 FEET WITH NO
SIGNIFICANT WEATHER AND/OR OBSTRUCTIONS TO VISIBILITY.

* THESE STATIONS ARE NOT UNDER NWS QUALITY CONTROL. THEY DO NOT
   REPORT WEATHER SUCH AS PRECIPITATION OR FOG.

MTZ001>007-043-250600-
WEST OF THE DIVIDE
CITY           SKY/WX    TMP DP  RH WIND       PRES   REMARKS
KALISPELL      CLOUDY    30  30 100 N7        29.63R WCI  23
MISSOULA       CLOUDY    34  30  85 N10       29.59R WCI  26
BUTTE          CLOUDY    28  21  75 NW13      29.42R WCI  17
MULLAN PASS    LGT SNOW  25  21  85 VRB7      29.57R VSB M1/4 WCI  17
* ESSEX        N/A       29  20  69 N/A        N/A
* HAMILTON APT CLOUDY    32  32 100 N9        29.56R WCI  24
* LIBBY APT    MOCLDY    32  30  92 CALM      29.69R
* LINCOLN      N/A       28  26  92 E6         N/A   WCI  21
* LOOKOUT PASS N/A       27  27 100 VRB6       N/A   WCI  20
* POLSON       N/A       30  30 100 NE1        N/A
* RONAN APT    CLOUDY    34  32  92 NW13       N/A   WCI  25
* SEELEY LAKE  N/A       31  29  92 SW2G10     N/A
* THOMP F APT  CLOUDY    23  21  92 NE5        N/A   WCI  16
* YAAK HILL    N/A       32  29  89 NE1        N/A
$$

MTZ008-052>055-250600-
SOUTHWEST MONTANA
CITY           SKY/WX    TMP DP  RH WIND       PRES   REMARKS
BOZEMAN        LGT SNOW  30  30 100 N10       29.44R VSB 3/4  WCI  21
DILLON         LGT SNOW  28  27  96 NE6       29.41R VSB 1 3/4 WCI  21
* W YELLOWSTON CLOUDY    21  19  92 N/A        N/A
* THREE FORKS  CLOUDY    32  32 100 SW5        N/A   WCI  27
* BOULDER HILL N/A       26  23  88 N16G23     N/A   WCI  13
* MONIDA PASS  N/A       21  21 100 E4         N/A
* RAYNOLDS PAS N/A       22  -1  36 SE8        N/A   WCI  13
* WHITEHALL    N/A       31  29  92 N10G18     N/A   WCI  22
* WISE RIVER   N/A       28  27  96 E2G8       N/A
$$

MTZ009>010-012-014-046-048-049-054-250600-
EAST SLOPES AND CENTRAL MONTANA
CITY           SKY/WX    TMP DP  RH WIND       PRES   REMARKS
CUT BANK       CLOUDY    27  21  78 NW10      29.64R WCI  18
GREAT FALLS    LGT SNOW  30  28  92 N26G32    29.58R VSB 1    WCI  16
HELENA         CLOUDY    30  28  92 W9        29.52R WCI  22
MALMSTROM AFB  LGT SNOW  28  28 100 NE32G38   29.59R VSB 1 3/4 WCI  12
* CONRAD       CLOUDY    28  28 100 W15G23     N/A   WCI  16
* DEARBORN     N/A       31  30  96 NE12G24    N/A   WCI  22
* EAST GLACIER N/A       22  20  92 NE11       N/A   WCI  11
* MONARCH      N/A       26  23  88 NE12       N/A   WCI  15
* PENDROY      N/A       25  25 100 NE22G27    N/A   WCI  10
* ROGERS PASS  N/A       24  22  92 SW4G12     N/A
* SWEET GRASS  N/A       25  23  92 N12        N/A   WCI  14
* WHITE SULPH  N/A       28  27  96 NW2G19     N/A
$$

MTZ011-013-016-021-035-040-045-047-050-051-250600-
NORTH CENTRAL MONTANA
CITY           SKY/WX    TMP DP  RH WIND       PRES   REMARKS
HAVRE          CLOUDY    30  28  92 NW3       29.62R
LEWISTOWN      LGT SNOW  30  28  92 CALM      29.54R VSB 3
* N BAR RANCH  FOG       28  27  96 N7G20     29.52R VSB 1    WCI  21
* CHINOOK      CLOUDY    30  25  82 W5        29.63R WCI  25
* CHESTER      N/A       30  24  78 NE7G12     N/A   WCI  23
* DENTON       N/A       31  30  96 NE9        N/A   WCI  23
* GEYSER       N/A       28  28 100 N14        N/A   WCI  17
* JUDITH GAP   N/A       28  27  96 N20G25     N/A   WCI  15
* LOMA         N/A       31  29  92 N18G27     N/A   WCI  19
$$

MTZ017>020-022>027-061-062-250600-
NORTHEAST MONTANA
CITY           SKY/WX    TMP DP  RH WIND       PRES   REMARKS
GLASGOW        MOCLDY    27  21  78 N8        29.55R WCI  19
GLENDIVE       CLOUDY    30  28  92 NW8       29.53R WCI  22
JORDAN         CLOUDY    32  30  92 N7        29.53R WCI  25
SIDNEY         PTCLDY    27  25  92 W5        29.55R WCI  21
WOLF POINT     MOCLDY    28  21  75 CALM      29.55R
* BEAVER HILL  N/A       30  28  92 VRB5       N/A   WCI  25
* CIRCLE       N/A       32  28  85 N/A        N/A
* LINDSAY DVD  N/A       30  29  96 NW9        N/A   WCI  22
* NAVAJO       N/A       23  19  85 NW16       N/A   WCI  10
* PLENTYWOOD A PTCLDY    19  18  96 NW7       29.52R WCI  10
* POPLAR APT   MOCLDY    27  21  78 N/A       29.55R
* SACO         N/A       28  24  85 NW6        N/A   WCI  21
$$

MTZ028>042-056>058-250600-
SOUTHCENTRAL AND SOUTHEAST MONTANA
CITY           SKY/WX    TMP DP  RH WIND       PRES   REMARKS
BAKER          CLOUDY    30  30 100 N3        29.48S
BILLINGS       LGT SNOW  32  30  92 NE14      29.48R VSB 1/2  WCI  22
LIVINGSTON     LGT SNOW  32  28  85 E12       29.44R VSB 3/4  WCI  23
MILES CITY     LGT SNOW  32  30  92 N8        29.51R WCI  25
* BIG TIMBER A CLOUDY    28  28 100 N10G17    29.47R VSB 2 1/2 WCI  19
* FORSYTH APT  CLOUDY    32  32 100 NE7       29.51R VSB 1    WCI  25
* LAUREL APT   CLOUDY    32  21  64 N/A        N/A
* ROUNDUP APT  CLOUDY    30  27  89 N9         N/A   WCI  22
* ALZADA       N/A       34  25  70 N9         N/A   WCI  27
* HYSHAM       N/A       31  29  92 NE9G16     N/A   WCI  23
* LAME DEER    N/A      N/A N/A N/A N/A        N/A
* REED POINT   N/A       33  32  96 W1         N/A
* ROSCOE HILL  N/A       28  24  85 E1         N/A
$$

REGIONAL REPORTS...DAKOTAS
CITY           SKY/WX    TMP DP  RH WIND       PRES   REMARKS
WILLISTON      PTCLDY    21  18  88 SW6       29.51R WCI  13
DICKINSON      CLOUDY    30  27  89 NW6       29.46S WCI  24
BEACH          CLOUDY    28  28 100 NW5       29.51R WCI  22
CROSBY         MOCLDY    27  25  92 W9        29.51R WCI  18
TIOGA          CLEAR     18  18 100 W8        29.51R WCI   8
WATFORD CITY   CLEAR     23  23 100 SW3       29.49R
BISMARCK       CLOUDY    30  28  92 NW3       29.47S
GRAND FORKS    CLOUDY    30  27  89 S8        29.41F WCI  22
FARGO          CLOUDY    30  27  89 S13       29.47S WCI  20
BUFFALO SD     CLOUDY    34  30  85 NE13      29.39S WCI  25
RAPID CITY     CLOUDY    37  28  70 N10       29.40R WCI  30
$$

REGIONAL REPORTS...WYOMING/IDAHO/WASHINGTON
CITY           SKY/WX    TMP DP  RH WIND       PRES   REMARKS
GILLETTE       CLOUDY    36  25  64 N7        29.37R WCI  30
SHERIDAN       LGT SNOW  34  28  79 W8        29.42R WCI  27
CODY           CLOUDY    28  25  89 SE9       29.38S WCI  19
YELLOWSTONE LA MOCLDY    21  19  92 CALM      29.41F
SALMON         CLOUDY    30  28  92 CALM      29.50R
MULLAN PASS    LGT SNOW  25  21  85 VRB7      29.57S VSB M1/4 WCI  17
SAND POINT     CLOUDY    30  30 100 CALM      29.72R
SPOKANE        PTCLDY    34  30  85 NW8       29.73R WCI  27
$$

REGIONAL REPORTS...ALBERTA
CITY           SKY/WX    TMP DP  RH WIND       PRES   REMARKS
CALGARY        FAIR      23  18  81 N8        29.69R WCI  14
LETHBRIDGE     CLOUDY    28  21  75 W13       29.70R WCI  17
MEDICINE HAT   CLOUDY    28  25  89 N10       29.69R WCI  19
EDMONTON       CLOUDY    16  12  84 N12       29.78R WCI   3
WATERTON GATE  N/A       25  23  92 W2         N/A
CARDSTON       N/A       27  25  92 W3         N/A
MILK RIVER     N/A       25  21  85 N9         N/A   WCI  16
$$

REGIONAL REPORTS...SASKATCHEWAN
CITY           SKY/WX    TMP DP  RH WIND       PRES   REMARKS
SWIFT CURRENT  CLOUDY    25  21  85 NW20      29.56R WCI  11
REGINA         CLOUDY    27  27 100 NW13      29.49R WCI  16
VAL MARIE      N/A       27  25  92 N9         N/A   WCI  18
ASSINIBOIA     N/A       25  23  92 NW15       N/A   WCI  13

$$




USA.gov is the U.S. government's official web portal to all federal, state and local government web resources and services.